Hourly Data Report for October 29, 2015

All times are specified in Local Standard Time (LST). Add 1 hour to adjust for Daylight Saving Time where and when it is observed.

QIKIQTARJUAQ A
NUNAVUT

67°32'48.000" N
64°01'54.000" W
5.50 m
2400577
YVM

Download Data

Hourly Data (October 2015)
Hourly Data Report for October 29, 2015
Temp Definition
°C
Dew Point Temp Definition
°C
Rel Hum Definition
%
Wind Dir Definition
10's deg

Wind Spd Definition
km/h
Visibility Definition
km
Stn Press Definition
kPa
Hmdx Definition


Wind Chill Definition


Weather Definition


TIME
00:00 Legend Double Dagger -8.0 -23.2 29 20 17 16.1 100.71   -15 LegendNANA
01:00 Legend Double Dagger -9.2 -23.2 32 LegendMM 4 16.1 100.72   -11 LegendNANA
02:00 Legend Double Dagger -10.8 -22.4 39 16 8 16.1 100.75   -15 LegendNANA
03:00 Legend Double Dagger -10.2 -20.7 42 16 9 16.1 100.76   -15 LegendNANA
04:00 Legend Double Dagger -10.0 -19.5 46 13 13 16.1 100.79   -16 LegendNANA
05:00 Legend Double Dagger -11.0 -20.7 45 14 11 16.1 100.81   -17 LegendNANA
06:00 Legend Double Dagger -9.9 -20.4 43 14 11 16.1 100.82   -15 LegendNANA
07:00 Legend Double Dagger -11.0 -18.4 55 14 5 16.1 100.84   -14 LegendNANA
08:00 Legend Double Dagger -11.5 -18.4 57 15 8 16.1 100.85   -16 LegendNANA
09:00 Legend Double Dagger -12.0 -18.6 59 16 9 16.1 100.85   -17 LegendNANA
10:00 Legend Double Dagger -10.6 -18.4 53 15 8 16.1 100.84   -15 LegendNANA
11:00 Legend Double Dagger -10.9 -17.9 57 19 11 16.1 100.84   -17 LegendNANA
12:00 Legend Double Dagger -10.0 -17.0 57 19 13 16.1 100.81   -16 LegendNANA
13:00 Legend Double Dagger -10.7 -17.2 59 19 9 16.1 100.80   -16 LegendNANA
14:00 Legend Double Dagger -11.1 -16.9 63 20 11 16.1 100.78   -17 LegendNANA
15:00 Legend Double Dagger -11.9 -17.3 65 15 11 16.1 100.75   -18 LegendNANA
16:00 Legend Double Dagger -11.6 -16.8 66 19 11 16.1 100.76   -18 LegendNANA
17:00 Legend Double Dagger -11.5 -16.9 65 19 17 16.1 100.73   -19 LegendNANA
18:00 Legend Double Dagger -12.0 -17.3 65 18 9 16.1 100.72   -17 LegendNANA
19:00 Legend Double Dagger -11.8 -18.4 59 17 11 16.1 100.71   -18 LegendNANA
20:00 Legend Double Dagger -12.7 -18.0 65 19 13 16.1 100.67   -20 LegendNANA
21:00 Legend Double Dagger -11.0 -17.1 61 18 21 16.1 100.64   -19 LegendNANA
22:00 Legend Double Dagger -10.6 -17.0 60 18 21 16.1 100.62   -19 LegendNANA
23:00 Legend Double Dagger -10.8 -16.9 61 19 22 16.1 100.57   -19 LegendNANA

Notes on Data Quality.

Legend

  • E = Estimated
  • M = Missing
  • NA = Not Available
  • ‡ = Partner data that is not subject to review by the National Climate Archives
Date modified: